owner,sensor,date,latitude,longitude,vertical_datum,sea_water_temperature,qcFlag
Anadarko,ioos:station:wmo:42373:1,2021-11-01T00:16:00Z,27.3539,-94.6254,79.0,24.3,11111222
Anadarko,ioos:station:wmo:42373:1,2021-11-01T00:36:00Z,27.3539,-94.6254,79.0,24.3,11111222
Anadarko,ioos:station:wmo:42373:1,2021-11-01T00:56:00Z,27.3539,-94.6254,79.0,24.3,11111222
Anadarko,ioos:station:wmo:42373:1,2021-11-01T01:16:00Z,27.3539,-94.6254,79.0,24.4,11111222
Anadarko,ioos:station:wmo:42373:1,2021-11-01T01:36:00Z,27.3539,-94.6254,79.0,24.4,11111222
Anadarko,ioos:station:wmo:42373:1,2021-11-01T01:56:00Z,27.3539,-94.6254,79.0,24.3,11111222
Anadarko,ioos:station:wmo:42373:1,2021-11-01T02:16:00Z,27.3539,-94.6254,79.0,24.3,11111222
Anadarko,ioos:station:wmo:42373:1,2021-11-01T02:36:00Z,27.3539,-94.6254,79.0,24.3,11111222
Anadarko,ioos:station:wmo:42373:1,2021-11-01T02:56:00Z,27.3539,-94.6254,79.0,24.3,11111222
Anadarko,ioos:station:wmo:42373:1,2021-11-01T03:16:00Z,27.3539,-94.6254,79.0,24.4,11111222
Anadarko,ioos:station:wmo:42373:1,2021-11-01T03:36:00Z,27.3539,-94.6254,79.0,24.4,11111222
Anadarko,ioos:station:wmo:42373:1,2021-11-01T03:56:00Z,27.3539,-94.6254,79.0,24.4,11111222
Anadarko,ioos:station:wmo:42373:1,2021-11-01T04:16:00Z,27.3539,-94.6254,79.0,24.4,11111222
Anadarko,ioos:station:wmo:42373:1,2021-11-01T04:36:00Z,27.3539,-94.6254,79.0,24.4,11111222
Anadarko,ioos:station:wmo:42373:1,2021-11-01T04:56:00Z,27.3539,-94.6254,79.0,24.3,11111222
Anadarko,ioos:station:wmo:42373:1,2021-11-01T05:16:00Z,27.3539,-94.6254,79.0,24.2,11111222
Anadarko,ioos:station:wmo:42373:1,2021-11-01T05:36:00Z,27.3539,-94.6254,79.0,24.3,11111222
Anadarko,ioos:station:wmo:42373:1,2021-11-01T05:56:00Z,27.3539,-94.6254,79.0,24.3,11111222
Anadarko,ioos:station:wmo:42373:1,2021-11-01T06:16:00Z,27.3539,-94.6254,79.0,24.3,11111222
Anadarko,ioos:station:wmo:42373:1,2021-11-01T06:36:00Z,27.3539,-94.6254,79.0,24.5,11111222
Anadarko,ioos:station:wmo:42373:1,2021-11-01T06:56:00Z,27.3539,-94.6254,79.0,24.5,11111222
Anadarko,ioos:station:wmo:42373:1,2021-11-01T07:16:00Z,27.3539,-94.6254,79.0,24.5,11111222
Anadarko,ioos:station:wmo:42373:1,2021-11-01T07:36:00Z,27.3539,-94.6254,79.0,24.6,11111222
Anadarko,ioos:station:wmo:42373:1,2021-11-01T07:56:00Z,27.3539,-94.6254,79.0,24.6,11111222
Anadarko,ioos:station:wmo:42373:1,2021-11-01T08:16:00Z,27.3539,-94.6254,79.0,24.5,11111222
Anadarko,ioos:station:wmo:42373:1,2021-11-01T08:36:00Z,27.3539,-94.6254,79.0,24.5,11111222
Anadarko,ioos:station:wmo:42373:1,2021-11-01T08:56:00Z,27.3539,-94.6254,79.0,24.5,11111222
Anadarko,ioos:station:wmo:42373:1,2021-11-01T09:16:00Z,27.3539,-94.6254,79.0,24.5,11111222
Anadarko,ioos:station:wmo:42373:1,2021-11-01T09:36:00Z,27.3539,-94.6254,79.0,24.6,11111222
Anadarko,ioos:station:wmo:42373:1,2021-11-01T09:56:00Z,27.3539,-94.6254,79.0,24.6,11111222
Anadarko,ioos:station:wmo:42373:1,2021-11-01T10:16:00Z,27.3539,-94.6254,79.0,24.6,11111222
Anadarko,ioos:station:wmo:42373:1,2021-11-01T10:36:00Z,27.3539,-94.6254,79.0,24.6,11111222
Anadarko,ioos:station:wmo:42373:1,2021-11-01T10:56:00Z,27.3539,-94.6254,79.0,24.5,11111222
Anadarko,ioos:station:wmo:42373:1,2021-11-01T11:16:00Z,27.3539,-94.6254,79.0,24.4,11111222
Anadarko,ioos:station:wmo:42373:1,2021-11-01T11:36:00Z,27.3539,-94.6254,79.0,24.4,11111222
Anadarko,ioos:station:wmo:42373:1,2021-11-01T11:56:00Z,27.3539,-94.6254,79.0,24.3,11111222
Anadarko,ioos:station:wmo:42373:1,2021-11-01T12:16:00Z,27.3539,-94.6254,79.0,24.3,11111222
Anadarko,ioos:station:wmo:42373:1,2021-11-01T12:36:00Z,27.3539,-94.6254,79.0,24.3,11111222
Anadarko,ioos:station:wmo:42373:1,2021-11-01T12:56:00Z,27.3539,-94.6254,79.0,24.3,11111222
Anadarko,ioos:station:wmo:42373:1,2021-11-01T13:16:00Z,27.3539,-94.6254,79.0,24.4,11111222
Anadarko,ioos:station:wmo:42373:1,2021-11-01T13:36:00Z,27.3539,-94.6254,79.0,24.4,11111222
Anadarko,ioos:station:wmo:42373:1,2021-11-01T13:56:00Z,27.3539,-94.6254,79.0,24.6,11111222
Anadarko,ioos:station:wmo:42373:1,2021-11-01T14:16:00Z,27.3539,-94.6254,79.0,24.6,11111222
Anadarko,ioos:station:wmo:42373:1,2021-11-01T14:36:00Z,27.3539,-94.6254,79.0,24.5,11111222
Anadarko,ioos:station:wmo:42373:1,2021-11-01T14:56:00Z,27.3539,-94.6254,79.0,24.2,11111222
Anadarko,ioos:station:wmo:42373:1,2021-11-01T15:16:00Z,27.3539,-94.6254,79.0,24.2,11111222
Anadarko,ioos:station:wmo:42373:1,2021-11-01T15:36:00Z,27.3539,-94.6254,79.0,24.3,11111222
Anadarko,ioos:station:wmo:42373:1,2021-11-01T15:56:00Z,27.3539,-94.6254,79.0,24.3,11111222
Anadarko,ioos:station:wmo:42373:1,2021-11-01T16:16:00Z,27.3539,-94.6254,79.0,24.3,11111222
Anadarko,ioos:station:wmo:42373:1,2021-11-01T16:36:00Z,27.3539,-94.6254,79.0,24.4,11111222
Anadarko,ioos:station:wmo:42373:1,2021-11-01T16:56:00Z,27.3539,-94.6254,79.0,24.3,11111222
Anadarko,ioos:station:wmo:42373:1,2021-11-01T17:16:00Z,27.3539,-94.6254,79.0,24.5,11111222
Anadarko,ioos:station:wmo:42373:1,2021-11-01T17:36:00Z,27.3539,-94.6254,79.0,24.5,11111222
Anadarko,ioos:station:wmo:42373:1,2021-11-01T17:56:00Z,27.3539,-94.6254,79.0,24.5,11111222
Anadarko,ioos:station:wmo:42373:1,2021-11-01T18:16:00Z,27.3539,-94.6254,79.0,24.6,11111222
Anadarko,ioos:station:wmo:42373:1,2021-11-01T18:36:00Z,27.3539,-94.6254,79.0,24.6,11111222
Anadarko,ioos:station:wmo:42373:1,2021-11-01T18:56:00Z,27.3539,-94.6254,79.0,24.6,11111222
Anadarko,ioos:station:wmo:42373:1,2021-11-01T19:16:00Z,27.3539,-94.6254,79.0,24.6,11111222
Anadarko,ioos:station:wmo:42373:1,2021-11-01T19:36:00Z,27.3539,-94.6254,79.0,24.6,11111222
Anadarko,ioos:station:wmo:42373:1,2021-11-01T19:56:00Z,27.3539,-94.6254,79.0,24.6,11111222
Anadarko,ioos:station:wmo:42373:1,2021-11-01T20:16:00Z,27.3539,-94.6254,79.0,24.6,11111222
Anadarko,ioos:station:wmo:42373:1,2021-11-01T20:36:00Z,27.3539,-94.6254,79.0,24.6,11111222
Anadarko,ioos:station:wmo:42373:1,2021-11-01T20:56:00Z,27.3539,-94.6254,79.0,24.7,11111222
Anadarko,ioos:station:wmo:42373:1,2021-11-01T21:16:00Z,27.3539,-94.6254,79.0,24.8,11111222
Anadarko,ioos:station:wmo:42373:1,2021-11-01T21:36:00Z,27.3539,-94.6254,79.0,24.6,11111222
Anadarko,ioos:station:wmo:42373:1,2021-11-01T21:56:00Z,27.3539,-94.6254,79.0,24.6,11111222
Anadarko,ioos:station:wmo:42373:1,2021-11-01T22:16:00Z,27.3539,-94.6254,79.0,24.7,11111222
Anadarko,ioos:station:wmo:42373:1,2021-11-01T22:36:00Z,27.3539,-94.6254,79.0,24.9,11111222
Anadarko,ioos:station:wmo:42373:1,2021-11-01T22:56:00Z,27.3539,-94.6254,79.0,24.9,11111222
Anadarko,ioos:station:wmo:42373:1,2021-11-01T23:16:00Z,27.3539,-94.6254,79.0,25.0,11111222
Anadarko,ioos:station:wmo:42373:1,2021-11-01T23:36:00Z,27.3539,-94.6254,79.0,25.2,11111222
Anadarko,ioos:station:wmo:42373:1,2021-11-01T23:56:00Z,27.3539,-94.6254,79.0,25.4,11111222
Anadarko,ioos:station:wmo:42373:1,2021-11-02T00:16:00Z,27.3539,-94.6254,79.0,25.2,11111222
Anadarko,ioos:station:wmo:42373:1,2021-11-02T00:36:00Z,27.3539,-94.6254,79.0,25.3,11111222
Anadarko,ioos:station:wmo:42373:1,2021-11-02T00:56:00Z,27.3539,-94.6254,79.0,25.4,11111222
Anadarko,ioos:station:wmo:42373:1,2021-11-02T01:16:00Z,27.3539,-94.6254,79.0,25.4,11111222
Anadarko,ioos:station:wmo:42373:1,2021-11-02T01:36:00Z,27.3539,-94.6254,79.0,25.4,11111222
Anadarko,ioos:station:wmo:42373:1,2021-11-02T01:56:00Z,27.3539,-94.6254,79.0,25.8,11111222
Anadarko,ioos:station:wmo:42373:1,2021-11-02T02:16:00Z,27.3539,-94.6254,79.0,25.9,11111222
Anadarko,ioos:station:wmo:42373:1,2021-11-02T02:36:00Z,27.3539,-94.6254,79.0,25.5,11111222
Anadarko,ioos:station:wmo:42373:1,2021-11-02T02:56:00Z,27.3539,-94.6254,79.0,25.4,11111222
Anadarko,ioos:station:wmo:42373:1,2021-11-02T03:16:00Z,27.3539,-94.6254,79.0,25.4,11111222
Anadarko,ioos:station:wmo:42373:1,2021-11-02T03:36:00Z,27.3539,-94.6254,79.0,25.3,11111222
Anadarko,ioos:station:wmo:42373:1,2021-11-02T03:56:00Z,27.3539,-94.6254,79.0,25.2,11111222
Anadarko,ioos:station:wmo:42373:1,2021-11-02T04:16:00Z,27.3539,-94.6254,79.0,25.2,11111222
Anadarko,ioos:station:wmo:42373:1,2021-11-02T04:36:00Z,27.3539,-94.6254,79.0,25.1,11111222
Anadarko,ioos:station:wmo:42373:1,2021-11-02T04:56:00Z,27.3539,-94.6254,79.0,25.2,11111222
Anadarko,ioos:station:wmo:42373:1,2021-11-02T05:16:00Z,27.3539,-94.6254,79.0,25.2,11111222
Anadarko,ioos:station:wmo:42373:1,2021-11-02T05:36:00Z,27.3539,-94.6254,79.0,25.4,11111222
Anadarko,ioos:station:wmo:42373:1,2021-11-02T05:56:00Z,27.3539,-94.6254,79.0,25.5,11111222
Anadarko,ioos:station:wmo:42373:1,2021-11-02T06:16:00Z,27.3539,-94.6254,79.0,25.3,11111222
Anadarko,ioos:station:wmo:42373:1,2021-11-02T06:36:00Z,27.3539,-94.6254,79.0,25.5,11111222
Anadarko,ioos:station:wmo:42373:1,2021-11-02T06:56:00Z,27.3539,-94.6254,79.0,25.8,11111222
Anadarko,ioos:station:wmo:42373:1,2021-11-02T07:16:00Z,27.3539,-94.6254,79.0,25.8,11111222
Anadarko,ioos:station:wmo:42373:1,2021-11-02T07:36:00Z,27.3539,-94.6254,79.0,26.3,11111222
Anadarko,ioos:station:wmo:42373:1,2021-11-02T07:56:00Z,27.3539,-94.6254,79.0,25.9,11111222
Anadarko,ioos:station:wmo:42373:1,2021-11-02T08:16:00Z,27.3539,-94.6254,79.0,25.5,11111222
Anadarko,ioos:station:wmo:42373:1,2021-11-02T08:36:00Z,27.3539,-94.6254,79.0,25.3,11111222
Anadarko,ioos:station:wmo:42373:1,2021-11-02T08:56:00Z,27.3539,-94.6254,79.0,25.5,11111222
Anadarko,ioos:station:wmo:42373:1,2021-11-02T09:16:00Z,27.3539,-94.6254,79.0,25.6,11111222
Anadarko,ioos:station:wmo:42373:1,2021-11-02T09:36:00Z,27.3539,-94.6254,79.0,25.6,11111222
Anadarko,ioos:station:wmo:42373:1,2021-11-02T09:56:00Z,27.3539,-94.6254,79.0,25.8,11111222
Anadarko,ioos:station:wmo:42373:1,2021-11-02T10:16:00Z,27.3539,-94.6254,79.0,25.7,11111222
Anadarko,ioos:station:wmo:42373:1,2021-11-02T10:36:00Z,27.3539,-94.6254,79.0,26.0,11111222
Anadarko,ioos:station:wmo:42373:1,2021-11-02T10:56:00Z,27.3539,-94.6254,79.0,26.2,11111222
Anadarko,ioos:station:wmo:42373:1,2021-11-02T11:16:00Z,27.3539,-94.6254,79.0,26.3,11111222
Anadarko,ioos:station:wmo:42373:1,2021-11-02T11:36:00Z,27.3539,-94.6254,79.0,26.4,11111222
Anadarko,ioos:station:wmo:42373:1,2021-11-02T11:56:00Z,27.3539,-94.6254,79.0,26.5,11111222
Anadarko,ioos:station:wmo:42373:1,2021-11-02T12:16:00Z,27.3539,-94.6254,79.0,26.6,11111222
Anadarko,ioos:station:wmo:42373:1,2021-11-02T12:36:00Z,27.3539,-94.6254,79.0,26.6,11111222
Anadarko,ioos:station:wmo:42373:1,2021-11-02T12:56:00Z,27.3539,-94.6254,79.0,26.6,11111222
Anadarko,ioos:station:wmo:42373:1,2021-11-02T13:16:00Z,27.3539,-94.6254,79.0,26.6,11111222
Anadarko,ioos:station:wmo:42373:1,2021-11-02T13:36:00Z,27.3539,-94.6254,79.0,26.7,11111222
Anadarko,ioos:station:wmo:42373:1,2021-11-02T13:56:00Z,27.3539,-94.6254,79.0,26.7,11111222
Anadarko,ioos:station:wmo:42373:1,2021-11-02T14:16:00Z,27.3539,-94.6254,79.0,26.6,11111222
Anadarko,ioos:station:wmo:42373:1,2021-11-02T14:36:00Z,27.3539,-94.6254,79.0,26.4,11111222
Anadarko,ioos:station:wmo:42373:1,2021-11-02T14:56:00Z,27.3539,-94.6254,79.0,26.2,11111222
Anadarko,ioos:station:wmo:42373:1,2021-11-02T15:16:00Z,27.3539,-94.6254,79.0,26.2,11111222
Anadarko,ioos:station:wmo:42373:1,2021-11-02T15:36:00Z,27.3539,-94.6254,79.0,26.4,11111222
Anadarko,ioos:station:wmo:42373:1,2021-11-02T15:56:00Z,27.3539,-94.6254,79.0,26.4,11111222
Anadarko,ioos:station:wmo:42373:1,2021-11-02T16:16:00Z,27.3539,-94.6254,79.0,26.3,11111222
Anadarko,ioos:station:wmo:42373:1,2021-11-02T16:36:00Z,27.3539,-94.6254,79.0,26.2,11111222
Anadarko,ioos:station:wmo:42373:1,2021-11-02T16:56:00Z,27.3539,-94.6254,79.0,25.9,11111222
Anadarko,ioos:station:wmo:42373:1,2021-11-02T17:16:00Z,27.3539,-94.6254,79.0,26.1,11111222
Anadarko,ioos:station:wmo:42373:1,2021-11-02T17:36:00Z,27.3539,-94.6254,79.0,25.9,11111222
Anadarko,ioos:station:wmo:42373:1,2021-11-02T17:56:00Z,27.3539,-94.6254,79.0,25.9,11111222
Anadarko,ioos:station:wmo:42373:1,2021-11-02T18:16:00Z,27.3539,-94.6254,79.0,25.4,11111222
Anadarko,ioos:station:wmo:42373:1,2021-11-02T18:36:00Z,27.3539,-94.6254,79.0,25.4,11111222
Anadarko,ioos:station:wmo:42373:1,2021-11-02T18:56:00Z,27.3539,-94.6254,79.0,25.5,11111222
Anadarko,ioos:station:wmo:42373:1,2021-11-02T19:16:00Z,27.3539,-94.6254,79.0,25.5,11111222
Anadarko,ioos:station:wmo:42373:1,2021-11-02T19:36:00Z,27.3539,-94.6254,79.0,25.4,11111222
Anadarko,ioos:station:wmo:42373:1,2021-11-02T19:56:00Z,27.3539,-94.6254,79.0,25.5,11111222
Anadarko,ioos:station:wmo:42373:1,2021-11-02T20:16:00Z,27.3539,-94.6254,79.0,25.7,11111222
Anadarko,ioos:station:wmo:42373:1,2021-11-02T20:36:00Z,27.3539,-94.6254,79.0,26.0,11111222
Anadarko,ioos:station:wmo:42373:1,2021-11-02T20:56:00Z,27.3539,-94.6254,79.0,26.3,11111222
Anadarko,ioos:station:wmo:42373:1,2021-11-02T21:16:00Z,27.3539,-94.6254,79.0,26.3,11111222
Anadarko,ioos:station:wmo:42373:1,2021-11-02T21:36:00Z,27.3539,-94.6254,79.0,26.2,11111222
Anadarko,ioos:station:wmo:42373:1,2021-11-02T21:56:00Z,27.3539,-94.6254,79.0,26.2,11111222
Anadarko,ioos:station:wmo:42373:1,2021-11-02T22:16:00Z,27.3539,-94.6254,79.0,26.2,11111222
Anadarko,ioos:station:wmo:42373:1,2021-11-02T22:36:00Z,27.3539,-94.6254,79.0,26.3,11111222
Anadarko,ioos:station:wmo:42373:1,2021-11-02T22:56:00Z,27.3539,-94.6254,79.0,26.3,11111222
Anadarko,ioos:station:wmo:42373:1,2021-11-02T23:16:00Z,27.3539,-94.6254,79.0,26.4,11111222
Anadarko,ioos:station:wmo:42373:1,2021-11-02T23:36:00Z,27.3539,-94.6254,79.0,26.4,11111222
Anadarko,ioos:station:wmo:42373:1,2021-11-02T23:56:00Z,27.3539,-94.6254,79.0,26.4,11111222
Anadarko,ioos:station:wmo:42373:1,2021-11-03T00:16:00Z,27.3539,-94.6254,79.0,26.4,11111222
Anadarko,ioos:station:wmo:42373:1,2021-11-03T00:36:00Z,27.3539,-94.6254,79.0,26.4,11111222
Anadarko,ioos:station:wmo:42373:1,2021-11-03T00:56:00Z,27.3539,-94.6254,79.0,26.4,11111222
Anadarko,ioos:station:wmo:42373:1,2021-11-03T01:16:00Z,27.3539,-94.6254,79.0,26.3,11111222
Anadarko,ioos:station:wmo:42373:1,2021-11-03T01:36:00Z,27.3539,-94.6254,79.0,26.3,11111222
Anadarko,ioos:station:wmo:42373:1,2021-11-03T01:56:00Z,27.3539,-94.6254,79.0,26.3,11111222
Anadarko,ioos:station:wmo:42373:1,2021-11-03T02:16:00Z,27.3539,-94.6254,79.0,26.3,11111222
Anadarko,ioos:station:wmo:42373:1,2021-11-03T02:36:00Z,27.3539,-94.6254,79.0,26.3,11111222
Anadarko,ioos:station:wmo:42373:1,2021-11-03T02:56:00Z,27.3539,-94.6254,79.0,26.3,11111222
Anadarko,ioos:station:wmo:42373:1,2021-11-03T03:16:00Z,27.3539,-94.6254,79.0,26.4,11111222
Anadarko,ioos:station:wmo:42373:1,2021-11-03T03:36:00Z,27.3539,-94.6254,79.0,26.5,11111222
Anadarko,ioos:station:wmo:42373:1,2021-11-03T03:56:00Z,27.3539,-94.6254,79.0,26.5,11111222
Anadarko,ioos:station:wmo:42373:1,2021-11-03T04:16:00Z,27.3539,-94.6254,79.0,26.5,11111222
Anadarko,ioos:station:wmo:42373:1,2021-11-03T04:36:00Z,27.3539,-94.6254,79.0,26.4,11111222
Anadarko,ioos:station:wmo:42373:1,2021-11-03T04:56:00Z,27.3539,-94.6254,79.0,26.5,11111222
Anadarko,ioos:station:wmo:42373:1,2021-11-03T05:16:00Z,27.3539,-94.6254,79.0,26.5,11111222
Anadarko,ioos:station:wmo:42373:1,2021-11-03T05:36:00Z,27.3539,-94.6254,79.0,26.6,11111222
Anadarko,ioos:station:wmo:42373:1,2021-11-03T05:56:00Z,27.3539,-94.6254,79.0,26.7,11111222
Anadarko,ioos:station:wmo:42373:1,2021-11-03T06:16:00Z,27.3539,-94.6254,79.0,26.7,11111222
Anadarko,ioos:station:wmo:42373:1,2021-11-03T06:36:00Z,27.3539,-94.6254,79.0,26.8,11111222
Anadarko,ioos:station:wmo:42373:1,2021-11-03T06:56:00Z,27.3539,-94.6254,79.0,26.8,11111222
Anadarko,ioos:station:wmo:42373:1,2021-11-03T07:16:00Z,27.3539,-94.6254,79.0,26.7,11111222
Anadarko,ioos:station:wmo:42373:1,2021-11-03T07:36:00Z,27.3539,-94.6254,79.0,26.7,11111222
Anadarko,ioos:station:wmo:42373:1,2021-11-03T07:56:00Z,27.3539,-94.6254,79.0,26.7,11111222
Anadarko,ioos:station:wmo:42373:1,2021-11-03T08:16:00Z,27.3539,-94.6254,79.0,26.7,11111222
Anadarko,ioos:station:wmo:42373:1,2021-11-03T08:36:00Z,27.3539,-94.6254,79.0,26.7,11111222
Anadarko,ioos:station:wmo:42373:1,2021-11-03T08:56:00Z,27.3539,-94.6254,79.0,26.8,11111222
Anadarko,ioos:station:wmo:42373:1,2021-11-03T09:16:00Z,27.3539,-94.6254,79.0,26.8,11111222
Anadarko,ioos:station:wmo:42373:1,2021-11-03T09:36:00Z,27.3539,-94.6254,79.0,26.9,11111222
Anadarko,ioos:station:wmo:42373:1,2021-11-03T09:56:00Z,27.3539,-94.6254,79.0,27.0,11111222
Anadarko,ioos:station:wmo:42373:1,2021-11-03T10:16:00Z,27.3539,-94.6254,79.0,27.1,11111222
Anadarko,ioos:station:wmo:42373:1,2021-11-03T10:36:00Z,27.3539,-94.6254,79.0,27.2,11111222
Anadarko,ioos:station:wmo:42373:1,2021-11-03T10:56:00Z,27.3539,-94.6254,79.0,27.3,11111222
Anadarko,ioos:station:wmo:42373:1,2021-11-03T11:16:00Z,27.3539,-94.6254,79.0,26.9,11111222
Anadarko,ioos:station:wmo:42373:1,2021-11-03T11:36:00Z,27.3539,-94.6254,79.0,26.7,11111222
Anadarko,ioos:station:wmo:42373:1,2021-11-03T11:56:00Z,27.3539,-94.6254,79.0,26.7,11111222
Anadarko,ioos:station:wmo:42373:1,2021-11-03T12:16:00Z,27.3539,-94.6254,79.0,26.8,11111222
Anadarko,ioos:station:wmo:42373:1,2021-11-03T12:36:00Z,27.3539,-94.6254,79.0,26.8,11111222
Anadarko,ioos:station:wmo:42373:1,2021-11-03T12:56:00Z,27.3539,-94.6254,79.0,26.7,11111222
Anadarko,ioos:station:wmo:42373:1,2021-11-03T13:16:00Z,27.3539,-94.6254,79.0,26.7,11111222
Anadarko,ioos:station:wmo:42373:1,2021-11-03T13:36:00Z,27.3539,-94.6254,79.0,26.6,11111222
Anadarko,ioos:station:wmo:42373:1,2021-11-03T13:56:00Z,27.3539,-94.6254,79.0,26.6,11111222
Anadarko,ioos:station:wmo:42373:1,2021-11-03T14:16:00Z,27.3539,-94.6254,79.0,26.4,11111222
Anadarko,ioos:station:wmo:42373:1,2021-11-03T14:36:00Z,27.3539,-94.6254,79.0,26.4,11111222
Anadarko,ioos:station:wmo:42373:1,2021-11-03T14:56:00Z,27.3539,-94.6254,79.0,26.0,11111222
Anadarko,ioos:station:wmo:42373:1,2021-11-03T15:16:00Z,27.3539,-94.6254,79.0,25.6,11111222
Anadarko,ioos:station:wmo:42373:1,2021-11-03T15:36:00Z,27.3539,-94.6254,79.0,25.3,11111222
Anadarko,ioos:station:wmo:42373:1,2021-11-03T15:56:00Z,27.3539,-94.6254,79.0,25.2,11111222
Anadarko,ioos:station:wmo:42373:1,2021-11-03T16:16:00Z,27.3539,-94.6254,79.0,24.9,11111222
Anadarko,ioos:station:wmo:42373:1,2021-11-03T16:36:00Z,27.3539,-94.6254,79.0,24.9,11111222
Anadarko,ioos:station:wmo:42373:1,2021-11-03T16:56:00Z,27.3539,-94.6254,79.0,24.9,11111222
Anadarko,ioos:station:wmo:42373:1,2021-11-03T17:16:00Z,27.3539,-94.6254,79.0,24.7,11111222
Anadarko,ioos:station:wmo:42373:1,2021-11-03T17:36:00Z,27.3539,-94.6254,79.0,24.6,11111222
Anadarko,ioos:station:wmo:42373:1,2021-11-03T17:56:00Z,27.3539,-94.6254,79.0,24.6,11111222
Anadarko,ioos:station:wmo:42373:1,2021-11-03T18:16:00Z,27.3539,-94.6254,79.0,24.6,11111222
Anadarko,ioos:station:wmo:42373:1,2021-11-03T18:36:00Z,27.3539,-94.6254,79.0,24.6,11111222
Anadarko,ioos:station:wmo:42373:1,2021-11-03T18:56:00Z,27.3539,-94.6254,79.0,24.6,11111222
Anadarko,ioos:station:wmo:42373:1,2021-11-03T19:16:00Z,27.3539,-94.6254,79.0,24.6,11111222
Anadarko,ioos:station:wmo:42373:1,2021-11-03T19:36:00Z,27.3539,-94.6254,79.0,24.6,11111222
Anadarko,ioos:station:wmo:42373:1,2021-11-03T19:56:00Z,27.3539,-94.6254,79.0,24.6,11111222
Anadarko,ioos:station:wmo:42373:1,2021-11-03T20:16:00Z,27.3539,-94.6254,79.0,24.6,11111222
Anadarko,ioos:station:wmo:42373:1,2021-11-03T20:36:00Z,27.3539,-94.6254,79.0,24.6,11111222
Anadarko,ioos:station:wmo:42373:1,2021-11-03T20:56:00Z,27.3539,-94.6254,79.0,24.6,11111222
Anadarko,ioos:station:wmo:42373:1,2021-11-03T21:16:00Z,27.3539,-94.6254,79.0,24.6,11111222
Anadarko,ioos:station:wmo:42373:1,2021-11-03T21:36:00Z,27.3539,-94.6254,79.0,24.6,11111222
Anadarko,ioos:station:wmo:42373:1,2021-11-03T21:56:00Z,27.3539,-94.6254,79.0,24.6,11111222
Anadarko,ioos:station:wmo:42373:1,2021-11-03T22:16:00Z,27.3539,-94.6254,79.0,24.6,11111222
Anadarko,ioos:station:wmo:42373:1,2021-11-03T22:36:00Z,27.3539,-94.6254,79.0,24.6,11111222
Anadarko,ioos:station:wmo:42373:1,2021-11-03T22:56:00Z,27.3539,-94.6254,79.0,24.5,11111222
Anadarko,ioos:station:wmo:42373:1,2021-11-03T23:16:00Z,27.3539,-94.6254,79.0,24.4,11111222
Anadarko,ioos:station:wmo:42373:1,2021-11-03T23:36:00Z,27.3539,-94.6254,79.0,24.3,11111222
Anadarko,ioos:station:wmo:42373:1,2021-11-03T23:56:00Z,27.3539,-94.6254,79.0,24.3,11111222
Anadarko,ioos:station:wmo:42373:1,2021-11-04T00:16:00Z,27.3539,-94.6254,79.0,24.3,11111222
Anadarko,ioos:station:wmo:42373:1,2021-11-04T00:36:00Z,27.3539,-94.6254,79.0,24.3,11111222
Anadarko,ioos:station:wmo:42373:1,2021-11-04T00:56:00Z,27.3539,-94.6254,79.0,24.1,11111222
Anadarko,ioos:station:wmo:42373:1,2021-11-04T01:16:00Z,27.3539,-94.6254,79.0,23.9,11111222
Anadarko,ioos:station:wmo:42373:1,2021-11-04T01:36:00Z,27.3539,-94.6254,79.0,23.9,11111222
Anadarko,ioos:station:wmo:42373:1,2021-11-04T01:56:00Z,27.3539,-94.6254,79.0,24.0,11111222
Anadarko,ioos:station:wmo:42373:1,2021-11-04T02:16:00Z,27.3539,-94.6254,79.0,23.8,11111222
Anadarko,ioos:station:wmo:42373:1,2021-11-04T02:36:00Z,27.3539,-94.6254,79.0,23.7,11111222
Anadarko,ioos:station:wmo:42373:1,2021-11-04T02:56:00Z,27.3539,-94.6254,79.0,23.6,11111222
Anadarko,ioos:station:wmo:42373:1,2021-11-04T03:16:00Z,27.3539,-94.6254,79.0,23.6,11111222
Anadarko,ioos:station:wmo:42373:1,2021-11-04T03:36:00Z,27.3539,-94.6254,79.0,23.6,11111222
Anadarko,ioos:station:wmo:42373:1,2021-11-04T03:56:00Z,27.3539,-94.6254,79.0,23.5,11111222
Anadarko,ioos:station:wmo:42373:1,2021-11-04T04:16:00Z,27.3539,-94.6254,79.0,23.6,11111222
Anadarko,ioos:station:wmo:42373:1,2021-11-04T04:36:00Z,27.3539,-94.6254,79.0,23.5,11111222
Anadarko,ioos:station:wmo:42373:1,2021-11-04T04:56:00Z,27.3539,-94.6254,79.0,23.5,11111222
Anadarko,ioos:station:wmo:42373:1,2021-11-04T05:16:00Z,27.3539,-94.6254,79.0,23.5,11111222
Anadarko,ioos:station:wmo:42373:1,2021-11-04T05:36:00Z,27.3539,-94.6254,79.0,23.4,11111222
Anadarko,ioos:station:wmo:42373:1,2021-11-04T05:56:00Z,27.3539,-94.6254,79.0,23.5,11111222
Anadarko,ioos:station:wmo:42373:1,2021-11-04T06:16:00Z,27.3539,-94.6254,79.0,23.4,11111222
Anadarko,ioos:station:wmo:42373:1,2021-11-04T06:36:00Z,27.3539,-94.6254,79.0,23.3,11111222
Anadarko,ioos:station:wmo:42373:1,2021-11-04T06:56:00Z,27.3539,-94.6254,79.0,23.3,11111222
Anadarko,ioos:station:wmo:42373:1,2021-11-04T07:16:00Z,27.3539,-94.6254,79.0,23.3,11111222
Anadarko,ioos:station:wmo:42373:1,2021-11-04T07:36:00Z,27.3539,-94.6254,79.0,23.2,11111222
Anadarko,ioos:station:wmo:42373:1,2021-11-04T07:56:00Z,27.3539,-94.6254,79.0,23.2,11111222
Anadarko,ioos:station:wmo:42373:1,2021-11-04T08:16:00Z,27.3539,-94.6254,79.0,23.2,11111222
Anadarko,ioos:station:wmo:42373:1,2021-11-04T08:36:00Z,27.3539,-94.6254,79.0,23.2,11111222
Anadarko,ioos:station:wmo:42373:1,2021-11-04T08:56:00Z,27.3539,-94.6254,79.0,23.2,11111222
Anadarko,ioos:station:wmo:42373:1,2021-11-04T09:16:00Z,27.3539,-94.6254,79.0,23.2,11111222
Anadarko,ioos:station:wmo:42373:1,2021-11-04T09:36:00Z,27.3539,-94.6254,79.0,23.3,11111222
Anadarko,ioos:station:wmo:42373:1,2021-11-04T09:56:00Z,27.3539,-94.6254,79.0,23.4,11111222
Anadarko,ioos:station:wmo:42373:1,2021-11-04T10:16:00Z,27.3539,-94.6254,79.0,23.5,11111222
Anadarko,ioos:station:wmo:42373:1,2021-11-04T10:36:00Z,27.3539,-94.6254,79.0,23.4,11111222
Anadarko,ioos:station:wmo:42373:1,2021-11-04T10:56:00Z,27.3539,-94.6254,79.0,23.1,11111222
Anadarko,ioos:station:wmo:42373:1,2021-11-04T11:16:00Z,27.3539,-94.6254,79.0,23.1,11111222
Anadarko,ioos:station:wmo:42373:1,2021-11-04T11:36:00Z,27.3539,-94.6254,79.0,23.1,11111222
Anadarko,ioos:station:wmo:42373:1,2021-11-04T11:56:00Z,27.3539,-94.6254,79.0,23.0,11111222
Anadarko,ioos:station:wmo:42373:1,2021-11-04T12:16:00Z,27.3539,-94.6254,79.0,23.1,11111222
Anadarko,ioos:station:wmo:42373:1,2021-11-04T12:36:00Z,27.3539,-94.6254,79.0,23.1,11111222
Anadarko,ioos:station:wmo:42373:1,2021-11-04T12:56:00Z,27.3539,-94.6254,79.0,23.1,11111222
Anadarko,ioos:station:wmo:42373:1,2021-11-04T13:16:00Z,27.3539,-94.6254,79.0,23.2,11111222
Anadarko,ioos:station:wmo:42373:1,2021-11-04T13:36:00Z,27.3539,-94.6254,79.0,23.1,11111222
Anadarko,ioos:station:wmo:42373:1,2021-11-04T13:56:00Z,27.3539,-94.6254,79.0,23.1,11111222
Anadarko,ioos:station:wmo:42373:1,2021-11-04T14:16:00Z,27.3539,-94.6254,79.0,23.0,11111222